Location: Unspecified
(0.0000°N, 0.0000°E)
Time: 13:45:26
(UTC+00:00)

Courier 1B - All Passes

Search period start: 22 January 2026 00:00
Search period end: 01 February 2026 00:00
Orbit: 962 x 1208 km, 28.3° (Epoch: 21 January)

Date Brightness Start Highest point End Pass type
(mag) Time Alt. Az. Time Alt. Az. Time Alt. Az.
22 Jan - 00:58:24 10° SW 01:05:02 34° SSE 01:11:19 10° E night (unlit)
22 Jan - 02:52:11 10° WSW 02:59:22 72° NNW 03:06:06 10° NE visible
22 Jan - 04:48:48 10° WNW 04:53:38 20° NNW 04:58:19 10° NNE visible
22 Jan - 12:31:17 10° NNW 12:36:56 28° NNE 12:42:53 10° E daylight
22 Jan - 14:24:09 10° WNW 14:31:11 86° SSW 14:38:44 10° ESE daylight
22 Jan - 16:19:41 10° W 16:25:44 27° SSW 16:32:04 10° SSE daylight
23 Jan - 00:04:45 10° SSW 00:10:53 26° SSE 00:16:43 10° E night (unlit)
23 Jan - 01:58:00 10° WSW 02:05:26 83° SSE 02:12:20 10° ENE night (unlit)
23 Jan - 03:53:43 10° W 03:59:36 28° NNW 04:05:14 10° NNE visible
23 Jan - 11:38:13 10° NNW 11:42:54 20° NNE 11:47:44 10° ENE daylight
23 Jan - 13:30:23 10° NW 13:37:12 70° NNE 13:44:30 10° ESE daylight
23 Jan - 15:25:05 10° W 15:31:33 36° SSW 15:38:24 10° SE daylight
23 Jan - 17:23:50 10° SW 17:26:50 13° SSW 17:29:54 10° S daylight
23 Jan - 23:11:15 10° SSW 23:16:36 20° SSE 23:21:47 10° ESE visible
24 Jan - 01:03:58 10° SW 01:11:25 61° SSE 01:18:22 10° ENE night (unlit)
24 Jan - 02:58:56 10° W 03:05:37 40° NNW 03:11:55 10° NE visible
24 Jan - 04:58:16 10° NW 05:00:18 11° NNW 05:02:18 10° N visible
24 Jan - 10:45:32 10° N 10:48:47 14° NNE 10:52:05 10° NE daylight
24 Jan - 12:36:48 10° NW 12:43:15 49° NNE 12:50:07 10° ESE daylight
24 Jan - 14:30:46 10° WNW 14:37:28 48° SSW 14:44:36 10° SE daylight
24 Jan - 16:28:05 10° WSW 16:32:25 16° SSW 16:36:52 10° SSE daylight
24 Jan - 22:17:57 10° SSW 22:22:14 15° SSE 22:26:25 10° SE visible
25 Jan - 00:10:04 10° SW 00:17:19 45° SSE 00:24:11 10° E night (unlit)
25 Jan - 02:04:23 10° WSW 02:11:39 56° NNW 02:18:27 10° NE night (unlit)
25 Jan - 04:01:57 10° WNW 04:06:06 16° NNW 04:10:09 10° NNE visible
25 Jan - 11:43:24 10° NW 11:49:19 35° NNE 11:55:32 10° E daylight
25 Jan - 13:36:42 10° WNW 13:43:27 67° SSW 13:50:41 10° SE daylight
25 Jan - 15:32:54 10° WSW 15:38:06 21° SSW 15:43:30 10° SSE daylight
25 Jan - 21:25:05 10° S 21:27:44 12° SSE 21:30:22 10° SE visible
25 Jan - 23:16:18 10° SW 23:23:10 33° SSE 23:29:45 10° E night (unlit)
26 Jan - 01:10:02 10° WSW 01:17:39 78° NNW 01:24:47 10° NE night (unlit)
26 Jan - 03:06:29 10° WNW 03:11:59 23° NNW 03:17:15 10° NNE visible
26 Jan - 10:50:10 10° NNW 10:55:22 25° NNE 11:00:43 10° E daylight
26 Jan - 12:42:49 10° WNW 12:49:30 89° NNE 12:56:38 10° ESE daylight
26 Jan - 14:38:07 10° W 14:43:54 27° SSW 14:49:58 10° SSE daylight
26 Jan - 22:22:40 10° SSW 22:28:55 25° SSE 22:35:00 10° E visible
27 Jan - 00:15:51 10° SW 00:23:36 78° SSE 00:30:54 10° ENE night (unlit)
27 Jan - 02:11:26 10° W 02:17:55 32° NNW 02:24:04 10° NNE night (unlit)
27 Jan - 09:57:10 10° NNW 10:01:20 18° NNE 10:05:33 10° ENE daylight
27 Jan - 11:49:08 10° NW 11:55:36 64° NNE 12:02:27 10° ESE daylight
27 Jan - 13:43:38 10° W 13:49:48 37° SSW 13:56:20 10° SE daylight
27 Jan - 15:42:10 10° SW 15:44:55 12° SSW 15:47:43 10° S daylight
27 Jan - 21:29:14 10° SSW 21:34:35 19° SSE 21:39:52 10° ESE visible
27 Jan - 23:21:50 10° SW 23:29:30 58° SSE 23:36:50 10° ENE night (unlit)
28 Jan - 01:16:40 10° W 01:23:52 44° NNW 01:30:39 10° NE night (unlit)
28 Jan - 03:15:19 10° NW 03:18:36 13° NNW 03:21:48 10° N visible
28 Jan - 09:04:38 10° N 09:07:13 12° NNE 09:09:48 10° NE daylight
28 Jan - 10:55:35 10° NW 11:01:43 45° NNE 11:08:07 10° E daylight
28 Jan - 12:49:24 10° WNW 12:55:48 50° SSW 13:02:34 10° SE daylight
28 Jan - 14:46:31 10° WSW 14:50:34 16° SSW 14:54:45 10° SSE daylight
28 Jan - 20:36:03 10° S 20:40:10 15° SSE 20:44:17 10° SE visible
28 Jan - 22:27:58 10° SW 22:35:21 43° SSE 22:42:29 10° E visible
29 Jan - 00:22:09 10° WSW 00:29:48 62° NNW 00:37:03 10° NE night (unlit)
29 Jan - 02:19:24 10° WNW 02:24:22 19° NNW 02:29:09 10° NNE night (unlit)
29 Jan - 10:02:11 10° NNW 10:07:49 31° NNE 10:13:34 10° E daylight
29 Jan - 11:55:22 10° WNW 12:01:52 70° SSW 12:08:43 10° SE daylight
29 Jan - 13:51:25 10° WSW 13:56:20 21° SSW 14:01:27 10° SSE daylight
29 Jan - 19:43:33 10° S 19:45:40 11° SSE 19:47:47 10° SE visible
29 Jan - 21:34:16 10° SSW 21:41:08 32° SSE 21:47:53 10° E visible
29 Jan - 23:27:50 10° WSW 23:35:43 83° NNW 23:43:15 10° ENE night (unlit)
30 Jan - 01:24:03 10° W 01:30:11 26° NNW 01:36:04 10° NNE night (unlit)
30 Jan - 09:08:57 10° NNW 09:13:52 22° NNE 09:18:48 10° ENE daylight
30 Jan - 11:01:31 10° WNW 11:08:00 83° NNE 11:14:44 10° ESE daylight
30 Jan - 12:56:42 10° W 13:02:13 28° SSW 13:08:01 10° SSE daylight
30 Jan - 20:40:45 10° SSW 20:46:52 24° SSE 20:52:57 10° ESE visible
30 Jan - 22:33:43 10° SW 22:41:36 74° SSE 22:49:15 10° ENE visible
31 Jan - 00:29:04 10° W 00:36:02 36° NNW 00:42:44 10° NE night (unlit)
31 Jan - 02:29:08 10° NW 02:31:06 11° NNW 02:33:02 10° N night (unlit)
31 Jan - 08:15:56 10° NNW 08:19:49 16° NNE 08:23:40 10° ENE daylight
31 Jan - 10:07:49 10° NW 10:14:09 59° NNE 10:20:38 10° ESE daylight
31 Jan - 12:02:15 10° W 12:08:13 38° SSW 12:14:27 10° SE daylight
31 Jan - 14:00:46 10° SW 14:03:08 12° SSW 14:05:32 10° S daylight
31 Jan - 19:47:28 10° SSW 19:52:31 18° SSE 19:57:38 10° ESE visible
31 Jan - 21:39:47 10° SW 21:47:27 55° SSE 21:55:02 10° ENE visible
31 Jan - 23:34:23 10° WSW 23:41:55 49° NNW 23:49:10 10° NE night (unlit)
